STAR ONE D1

Last updated on Tue Oct 21 2025 00:02:53 GMT+0000 (Coordinated Universal Time)

1 41904U 16082B 25293.53503132 -.00000208 00000+0 00000+0 0 9997 2 41904 0.0412 87.0002 0001744 130.5491 280.3229 1.00273490 32370
UTC large
Height (km)
Speed (km/s)
/
Latitude / Longitude
Inclination (degrees)
Orbital Period (minutes)
Azimuth
Elevation
Range (km)
Doppler Factor

Next 0 passes for location: London (51.5072 / 0.1276)

Sorry there are no passes over London.